Location: Central Falls
(41.8900°N, 71.3929°W)
Time: 03:45:52
(UTC+00:00)

Tiros 1 - Pass Details

Date: 12 December 2023
Orbit: 625 x 658 km, 48.4° (Epoch: 01 March)

Event Time Altitude Azimuth Distance (km) Brightness Sun altitude
Rises 08:53:18 0° 280° (W) 2,976 - -34.5°
Reaches altitude 10° 08:55:47 10° 289° (WNW) 2,068 - -34.1°
Maximum altitude 09:00:14 37° 357° (N) 1,016 - -33.2°
Exits shadow 09:02:35 23° 49° (NE) 1,397 9.2 -32.8°
Drops below altitude 10° 09:04:42 10° 66° (ENE) 2,075 10.4 -32.4°
Sets 09:07:12 0° 74° (ENE) 2,986 11.6 -31.9°
